Location: Holbach
(51.5399°N, 10.6036°E)
Time: 11:26:44
(UTC+00:00)

Cosmos 1844 Rocket - Pass Details

Date: 18 September 2020
Orbit: 823 x 846 km, 71.0° (Epoch: 30 October)

Event Time Altitude Azimuth Distance (km) Brightness Sun altitude
Rises 19:39:16 0° 202° (SSW) 3,347 5.7 -20.7°
Reaches altitude 10° 19:41:41 10° 201° (SSW) 2,419 5.0 -21.1°
Maximum altitude 19:47:13 75° 117° (ESE) 859 2.5 -21.8°
Drops below altitude 10° 19:52:48 10° 33° (NNE) 2,446 5.1 -22.5°
Sets 19:55:15 0° 32° (NNE) 3,387 5.9 -22.8°
